When you browse on this site, cookies collect data to enhance your experience and personalize the content and advertising you see.
Visit our Privacy Policy to learn more. By continuing to use the site, you agree to this use of cookies and data.
  • In Germany
  • List of Countries
  • For 7 days
  • Water Temperature
  • Weather Map
  • Weather Widgets
  • user-avatar
    Login

    Hourly Weather Middlesbrough

    Today, 22 September, Sunday

    Time Temperature Precipitation Wind Pressure Humidity
    00:00 +13°C° 0 mm 2 mps 754 mmHg 90%
    01:00 +13°C° 0 mm 2 mps 754 mmHg 89%
    02:00 +13°C° 0 mm 2 mps 753 mmHg 88%
    03:00 +13°C° 0 mm 1 mps 753 mmHg 87%
    04:00 +14°C° 0 mm 1 mps 752 mmHg 88%
    05:00 +14°C° 0 mm 1 mps 752 mmHg 88%
    06:00 +14°C° 0 mm 1 mps 752 mmHg 88%
    07:00 +15°C° 0 mm 2 mps 751 mmHg 85%
    08:00 +17°C° 0 mm 2 mps 751 mmHg 81%
    09:00 +18°C° 0 mm 2 mps 751 mmHg 77%
    10:00 +19°C° 0.1 mm 3 mps 751 mmHg 78%
    11:00 +19°C° 0.1 mm 3 mps 751 mmHg 79%
    12:00 +19°C° 0.1 mm 3 mps 751 mmHg 80%
    13:00 +20°C° 0 mm 3 mps 750 mmHg 77%
    14:00 +21°C° 0 mm 3 mps 750 mmHg 74%
    15:00 +22°C° 0 mm 3 mps 750 mmHg 72%
    16:00 +21°C° 0.9 mm 3 mps 750 mmHg 79%
    17:00 +19°C° 0.9 mm 3 mps 750 mmHg 87%
    18:00 +18°C° 0.9 mm 2 mps 750 mmHg 95%
    19:00 +17°C° 2.3 mm 2 mps 750 mmHg 96%
    20:00 +17°C° 2.3 mm 2 mps 750 mmHg 96%
    21:00 +16°C° 2.3 mm 2 mps 751 mmHg 97%
    22:00 +16°C° 0.3 mm 2 mps 751 mmHg 97%
    23:00 +16°C° 0.3 mm 2 mps 751 mmHg 96%

    Tomorrow, 23 September, Monday

    Time Temperature Precipitation Wind Pressure Humidity
    00:00 +15°C° 0.3 mm 2 mps 751 mmHg 96%
    01:00 +15°C° 0 mm 2 mps 751 mmHg 96%
    02:00 +15°C° 0 mm 2 mps 752 mmHg 96%
    03:00 +14°C° 0 mm 2 mps 752 mmHg 96%
    04:00 +14°C° 0 mm 2 mps 752 mmHg 96%
    05:00 +14°C° 0 mm 2 mps 752 mmHg 96%
    06:00 +13°C° 0 mm 2 mps 753 mmHg 95%
    07:00 +13°C° 0 mm 3 mps 753 mmHg 92%
    08:00 +14°C° 0 mm 3 mps 753 mmHg 89%
    09:00 +16°C° 0 mm 3 mps 753 mmHg 85%
    10:00 +17°C° 0 mm 3 mps 754 mmHg 81%
    11:00 +18°C° 0 mm 3 mps 754 mmHg 78%
    12:00 +19°C° 0 mm 3 mps 754 mmHg 74%
    13:00 +19°C° 0.2 mm 4 mps 754 mmHg 72%
    14:00 +19°C° 0.2 mm 4 mps 754 mmHg 70%
    15:00 +19°C° 0.2 mm 4 mps 754 mmHg 68%
    16:00 +18°C° 0 mm 4 mps 754 mmHg 70%
    17:00 +17°C° 0 mm 4 mps 753 mmHg 73%
    18:00 +16°C° 0 mm 3 mps 753 mmHg 76%
    19:00 +15°C° 0 mm 4 mps 753 mmHg 77%
    20:00 +15°C° 0 mm 4 mps 753 mmHg 78%
    21:00 +15°C° 0 mm 5 mps 753 mmHg 79%
    22:00 +15°C° 0.3 mm 5 mps 752 mmHg 83%
    23:00 +14°C° 0.3 mm 6 mps 752 mmHg 88%

    Day after tomorrow, 24 September, Tuesday

    Time Temperature Precipitation Wind Pressure Humidity
    00:00 +14°C° 0.3 mm 6 mps 751 mmHg 92%
    01:00 +14°C° 0.1 mm 5 mps 751 mmHg 92%
    02:00 +15°C° 0.1 mm 5 mps 750 mmHg 93%
    03:00 +15°C° 0.1 mm 5 mps 750 mmHg 93%
    04:00 +15°C° 0 mm 4 mps 749 mmHg 94%
    05:00 +15°C° 0 mm 4 mps 749 mmHg 95%
    06:00 +15°C° 0 mm 4 mps 748 mmHg 96%
    07:00 +15°C° 0.3 mm 4 mps 748 mmHg 94%
    08:00 +17°C° 0.3 mm 4 mps 748 mmHg 92%
    09:00 +18°C° 0.3 mm 4 mps 747 mmHg 89%
    10:00 +19°C° 0.3 mm 5 mps 747 mmHg 86%
    11:00 +19°C° 0.3 mm 5 mps 747 mmHg 83%
    12:00 +20°C° 0.3 mm 6 mps 746 mmHg 80%
    13:00 +19°C° 1.2 mm 5 mps 746 mmHg 83%
    14:00 +17°C° 1.2 mm 5 mps 746 mmHg 86%
    15:00 +17°C° 1.2 mm 4 mps 745 mmHg 89%
    16:00 +17°C° 0.5 mm 4 mps 745 mmHg 91%
    17:00 +15°C° 0.5 mm 4 mps 745 mmHg 92%
    18:00 +14°C° 0.5 mm 3 mps 745 mmHg 94%
    19:00 +14°C° 0.8 mm 4 mps 745 mmHg 94%
    20:00 +14°C° 0.8 mm 5 mps 745 mmHg 94%
    21:00 +14°C° 0.8 mm 6 mps 745 mmHg 94%
    22:00 +14°C° 1.5 mm 5 mps 745 mmHg 94%
    23:00 +14°C° 1.5 mm 5 mps 745 mmHg 95%

    25 September, Wednesday

    Time Temperature Precipitation Wind Pressure Humidity
    00:00 +14°C° 1.5 mm 4 mps 745 mmHg 95%
    01:00 +14°C° 0.7 mm 4 mps 745 mmHg 95%
    02:00 +14°C° 0.7 mm 4 mps 745 mmHg 96%
    03:00 +13°C° 0.7 mm 3 mps 745 mmHg 96%
    04:00 +13°C° 0.1 mm 3 mps 745 mmHg 96%
    05:00 +13°C° 0.1 mm 3 mps 745 mmHg 96%
    06:00 +13°C° 0.1 mm 3 mps 745 mmHg 96%
    07:00 +14°C° 0.1 mm 3 mps 746 mmHg 95%
    08:00 +14°C° 0.1 mm 3 mps 746 mmHg 95%
    09:00 +15°C° 0.1 mm 2 mps 747 mmHg 94%
    10:00 +16°C° 0.1 mm 2 mps 747 mmHg 92%
    11:00 +16°C° 0.1 mm 2 mps 747 mmHg 89%
    12:00 +17°C° 0.1 mm 2 mps 747 mmHg 87%
    13:00 +17°C° 0.4 mm 2 mps 747 mmHg 85%
    14:00 +17°C° 0.4 mm 3 mps 747 mmHg 83%
    15:00 +18°C° 0.4 mm 3 mps 747 mmHg 82%
    16:00 +17°C° 0.1 mm 3 mps 748 mmHg 84%
    17:00 +16°C° 0.1 mm 3 mps 748 mmHg 87%
    18:00 +14°C° 0.1 mm 3 mps 748 mmHg 89%
    19:00 +14°C° 0 mm 3 mps 748 mmHg 90%
    20:00 +14°C° 0 mm 3 mps 747 mmHg 90%
    21:00 +14°C° 0 mm 3 mps 747 mmHg 91%
    22:00 +14°C° 0.1 mm 4 mps 747 mmHg 92%
    23:00 +14°C° 0.1 mm 5 mps 746 mmHg 93%

    26 September, Thursday

    Time Temperature Precipitation Wind Pressure Humidity
    00:00 +14°C° 0.1 mm 6 mps 746 mmHg 94%
    01:00 +15°C° 1.5 mm 6 mps 745 mmHg 94%
    02:00 +15°C° 1.5 mm 6 mps 745 mmHg 94%
    03:00 +16°C° 1.5 mm 7 mps 745 mmHg 93%
    04:00 +15°C° 0.1 mm 7 mps 745 mmHg 92%
    05:00 +15°C° 0.1 mm 6 mps 745 mmHg 91%
    06:00 +14°C° 0.1 mm 6 mps 745 mmHg 90%
    07:00 +14°C° 0 mm 6 mps 745 mmHg 86%
    08:00 +15°C° 0 mm 7 mps 746 mmHg 82%
    09:00 +15°C° 0 mm 7 mps 746 mmHg 78%
    10:00 +15°C° 0 mm 7 mps 746 mmHg 75%
    11:00 +16°C° 0 mm 6 mps 746 mmHg 71%
    12:00 +17°C° 0 mm 6 mps 746 mmHg 68%
    13:00 +16°C° 0.2 mm 5 mps 746 mmHg 71%
    14:00 +16°C° 0.2 mm 5 mps 746 mmHg 73%
    15:00 +16°C° 0.2 mm 5 mps 746 mmHg 76%
    16:00 +15°C° 0.3 mm 4 mps 746 mmHg 79%
    17:00 +14°C° 0.3 mm 4 mps 746 mmHg 82%
    18:00 +13°C° 0.3 mm 4 mps 746 mmHg 86%
    19:00 +13°C° 0 mm 4 mps 747 mmHg 87%
    20:00 +12°C° 0 mm 4 mps 747 mmHg 88%
    21:00 +12°C° 0 mm 4 mps 747 mmHg 89%
    22:00 +12°C° 0 mm 4 mps 747 mmHg 90%
    23:00 +11°C° 0 mm 4 mps 747 mmHg 90%

    27 September, Friday

    Time Temperature Precipitation Wind Pressure Humidity
    00:00 +11°C° 0 mm 4 mps 747 mmHg 90%
    01:00 +11°C° 0 mm 4 mps 747 mmHg 91%
    02:00 +11°C° 0 mm 4 mps 747 mmHg 91%
    03:00 +10°C° 0 mm 5 mps 747 mmHg 92%
    04:00 +10°C° 0 mm 5 mps 747 mmHg 92%
    05:00 +10°C° 0 mm 5 mps 747 mmHg 92%
    06:00 +10°C° 0 mm 5 mps 747 mmHg 92%
    07:00 +12°C° 0 mm 5 mps 747 mmHg 88%
    08:00 +13°C° 0 mm 5 mps 747 mmHg 84%
    09:00 +14°C° 0 mm 5 mps 747 mmHg 80%
    10:00 +14°C° 0.1 mm 5 mps 747 mmHg 77%
    11:00 +15°C° 0.1 mm 6 mps 747 mmHg 74%
    12:00 +15°C° 0.1 mm 6 mps 748 mmHg 71%
    13:00 +16°C° 0.1 mm 6 mps 747 mmHg 71%
    14:00 +16°C° 0.1 mm 6 mps 747 mmHg 71%
    15:00 +16°C° 0.1 mm 6 mps 747 mmHg 71%
    16:00 +15°C° 0 mm 5 mps 747 mmHg 74%
    17:00 +14°C° 0 mm 5 mps 747 mmHg 78%
    18:00 +13°C° 0 mm 5 mps 746 mmHg 82%
    19:00 +13°C° 0.1 mm 6 mps 746 mmHg 83%
    20:00 +12°C° 0.1 mm 7 mps 746 mmHg 84%
    21:00 +12°C° 0.1 mm 7 mps 746 mmHg 85%
    22:00 +12°C° 0.4 mm 7 mps 746 mmHg 87%
    23:00 +12°C° 0.4 mm 7 mps 746 mmHg 89%
    Show more